Location: Newark
(21.1200°N, 73.4000°E)
Time: 11:42:22
(UTC+00:00)

SR - Pass Details

Date: 30 January 2020
Orbit: 575 x 881 km, 66.7° (Epoch: 19 February)

Event Time Altitude Azimuth Distance (km) Brightness Sun altitude
Rises 02:10:35 0° 333° (NNW) 3,229 ? 4.9°
Reaches altitude 10° 02:13:05 10° 331° (NNW) 2,251 ? 5.5°
Maximum altitude 02:18:08 64° 250° (WSW) 768 ? 6.6°
Drops below altitude 10° 02:22:44 10° 169° (S) 2,049 ? 7.5°
Sets 02:24:56 0° 166° (SSE) 2,915 ? 8.0°
